{"data":{"norad_id":47770,"epoch":"2026-05-24T14:19:48.193248Z","epoch_age_seconds":119924,"freshness":"FRESH","line1":"1 47770U 21017BA  26144.59708557  .00002282  00000+0  85225-4 0  9998","line2":"2 47770  53.1594 210.8720 0001147  87.2659 272.8474 15.31719739289496","mean_motion":15.31719739,"eccentricity":0.0001147,"inclination_deg":53.1594,"raan_deg":210.872,"arg_perigee_deg":87.2659,"mean_anomaly_deg":272.8474,"bstar":8.5225e-5,"rev_number":28949,"period_min":94.011976429847,"perigee_km":469.89559548331,"apogee_km":471.46671436805,"semimajor_km":6848.8181549257,"source":"CELESTRAK","updated_at":"2026-05-25T13:38:16.593376Z"}}